Tracking 28790 objects as of 19-Apr-2024
HD Live streaming from Space Station
objects crossing your sky now

TEMISAT

Track TEMISAT now!
10-day predictions
TEMISAT is classified as:


NORAD ID: 22783
Int'l Code: 1993-055B
Perigee: 941.8 km
Apogee: 973.4 km
Inclination: 82.6 °
Period: 104.1 minutes
Semi major axis: 7328 km
RCS: 0.2915 m2 (medium)
Launch date: August 31, 1993
Source: Italy (IT)
Launch site: PLESETSK MISSILE AND SPACE COMPLEX (PKMTR)
Your satellite tracking list
Your tracking list is empty




NASA's NSSDC Master Catalog

Two Line Element Set (TLE):
1 22783U 93055B   24110.23601677  .00000093  00000-0  70866-4 0  9997
2 22783  82.5545 203.9354 0021521 261.6613  98.2107 13.83798343547120
Source of the keplerian elements: AFSPC